Waarnemingen

Advertentie
Mijn weer
Bilbao/Aeropuerto, Spanje (8025): temperatuur & dauwpunt: 07.12.2017 04:00:00 - 13.12.2017 04:00:00 (CET)Bilbao/Aeropuerto, Spanje (8025): windsnelheid & windstoten: 07.12.2017 04:00:00 - 13.12.2017 04:00:00 (CET)Bilbao/Aeropuerto, Spanje (8025): windrichting: 07.12.2017 04:00:00 - 13.12.2017 04:00:00 (CET)Bilbao/Aeropuerto, Spanje (8025): luchtdruk: 07.12.2017 04:00:00 - 13.12.2017 04:00:00 (CET)Bilbao/Aeropuerto, Spanje (8025): zicht: 07.12.2017 04:00:00 - 13.12.2017 04:00:00 (CET)
Datum & Tijd tt [°C] td [°C] ff [km/u] ff [kn] fx [km/u] fx [kn] dd ppp [hPa] vv [km]
13.12.2017 04:00:00 6,0 2,3 2 1 - - OZO 1021,5 -
13.12.2017 03:00:00 5,4 2,2 2 1 - - ZO 1021,6 -
13.12.2017 02:00:00 3,9 2,8 0 0 - - N 1021,8 -
13.12.2017 01:00:00 3,8 2,6 0 0 - - N 1022,7 -
13.12.2017 00:00:00 5,0 3,3 0 0 - - N 1023,0 -
12.12.2017 23:00:00 5,7 3,4 5 3 - - OZO 1022,6 -
12.12.2017 22:00:00 6,3 4,0 0 0 - - N 1022,0 15
12.12.2017 21:00:00 6,9 4,6 0 0 - - N 1021,5 -
12.12.2017 20:00:00 7,0 5,5 4 2 - - ONO 1021,4 -
12.12.2017 19:00:00 7,6 5,2 4 2 - - NO 1021,3 15
12.12.2017 18:00:00 8,3 5,2 2 1 - - ONO 1020,7 -
12.12.2017 17:00:00 8,5 4,5 4 2 - - WNW 1020,2 -
12.12.2017 16:00:00 8,2 5,1 9 5 - - WZW 1019,8 20
12.12.2017 15:00:00 9,2 4,4 11 6 - - WZW 1019,1 -
12.12.2017 14:00:00 8,8 4,0 15 8 - - WZW 1018,8 -
12.12.2017 13:00:00 9,2 4,5 16 9 - - ZW 1018,7 20
12.12.2017 12:00:00 8,4 4,3 11 6 - - WZW 1018,4 -
12.12.2017 11:00:00 7,5 4,9 5 3 - - Z 1018,3 -
12.12.2017 10:00:00 5,9 4,7 4 2 - - ZZO 1017,6 15
12.12.2017 09:00:00 5,6 4,9 4 2 - - ZZW 1017,0 -
12.12.2017 08:00:00 4,9 4,9 2 1 - - N 1016,0 -
12.12.2017 07:00:00 4,1 4,1 5 3 - - NNO 1014,9 15
12.12.2017 06:00:00 2,9 2,9 5 3 - - O 1013,0 -
12.12.2017 05:00:00 3,0 3,0 11 6 - - O 1012,1 -
12.12.2017 04:00:00 3,5 3,1 5 3 - - O 1011,1 -
12.12.2017 03:00:00 4,5 3,8 11 6 - - ZO 1010,0 -
12.12.2017 02:00:00 5,4 3,8 16 9 - - ONO 1008,9 -
12.12.2017 01:00:00 7,1 3,5 9 5 - - W 1008,3 -
12.12.2017 00:00:00 6,9 4,7 22 12 - - NNW 1007,8 -
11.12.2017 23:00:00 7,3 4,3 4 2 - - W 1006,3 -
11.12.2017 22:00:00 7,1 3,5 16 9 - - W 1004,8 10
11.12.2017 21:00:00 7,2 4,5 11 6 - - WZW 1003,3 -
11.12.2017 20:00:00 6,9 4,7 26 14 - - WNW 1002,4 -
11.12.2017 19:00:00 7,6 4,2 11 6 - - W 1000,4 15
11.12.2017 18:00:00 6,7 5,2 15 8 - - W 999,0 -
11.12.2017 17:00:00 7,8 4,4 22 12 - - W 997,1 -
11.12.2017 16:00:00 8,8 4,5 15 8 - - W 995,5 15
11.12.2017 15:00:00 9,8 4,9 22 12 - - WNW 994,5 -
11.12.2017 14:00:00 11,4 3,5 28 15 - - W 993,1 -
11.12.2017 13:00:00 11,2 4,1 16 9 - - WNW 992,6 25
11.12.2017 12:00:00 11,8 4,2 9 5 - - ZW 992,0 -
11.12.2017 11:00:00 11,8 4,5 8 4 - - W 991,1 -
11.12.2017 10:00:00 9,8 4,6 8 4 - - W 990,0 25
11.12.2017 09:00:00 9,7 3,9 13 7 - - WZW 989,3 -
11.12.2017 08:00:00 9,6 5,0 13 7 - - WZW 988,9 -
11.12.2017 07:00:00 9,4 5,2 8 4 - - WZW 987,8 10
11.12.2017 06:00:00 9,1 6,2 9 5 - - W 986,6 -
11.12.2017 05:00:00 9,5 6,4 24 13 - - W 987,4 -
11.12.2017 04:00:00 9,4 8,9 4 2 - - OZO 985,8 -
11.12.2017 03:00:00 9,7 8,3 4 2 - - OZO 985,0 -
11.12.2017 02:00:00 10,0 8,4 13 7 - - W 984,5 -
11.12.2017 01:00:00 10,7 9,0 35 19 - - WNW 983,9 -
11.12.2017 00:00:00 19,5 7,6 35 19 76 41 ZW 980,9 -
10.12.2017 23:00:00 19,6 7,7 28 15 - - ZW 982,1 -
10.12.2017 22:00:00 19,2 7,6 22 12 - - ZW 984,7 30
10.12.2017 21:00:00 17,7 9,5 28 15 - - WZW 987,7 -
10.12.2017 20:00:00 11,3 11,3 18 10 - - OZO 991,5 -
10.12.2017 19:00:00 11,2 11,2 11 6 - - OZO 994,3 6
10.12.2017 18:00:00 11,4 11,2 4 2 - - OZO 997,1 -
10.12.2017 17:00:00 11,9 11,6 13 7 - - WNW 999,1 -
10.12.2017 16:00:00 12,6 11,8 4 2 - - NW 999,6 6
10.12.2017 15:00:00 13,9 12,3 13 7 - - NW 1001,2 -
10.12.2017 14:00:00 18,3 9,7 22 12 - - ZW 1001,5 -
10.12.2017 13:00:00 17,9 9,3 37 20 - - ZW 1002,8 30
10.12.2017 12:00:00 17,6 9,1 35 19 - - ZW 1004,5 -
10.12.2017 11:00:00 17,3 7,9 28 15 - - ZW 1005,5 -
10.12.2017 10:00:00 17,3 7,3 28 15 - - ZW 1006,2 25
10.12.2017 09:00:00 17,1 7,5 28 15 - - ZW 1007,1 -
10.12.2017 08:00:00 16,9 7,4 26 14 - - ZW 1008,3 -
10.12.2017 07:00:00 16,2 8,2 15 8 - - ZW 1009,1 15
10.12.2017 06:00:00 15,6 8,4 18 10 - - ZW 1009,8 -
10.12.2017 05:00:00 13,5 9,9 4 2 - - Z 1011,6 -
10.12.2017 04:00:00 12,2 10,4 4 2 - - OZO 1012,5 -
10.12.2017 03:00:00 12,5 10,6 5 3 - - ONO 1013,2 -
10.12.2017 02:00:00 13,4 10,4 9 5 - - ZW 1014,1 -
10.12.2017 01:00:00 14,1 9,9 8 4 - - ZZW 1014,8 -
10.12.2017 00:00:00 12,3 10,5 5 3 - - ONO 1015,5 -
09.12.2017 23:00:00 13,1 10,3 9 5 - - ZZW 1016,3 -
09.12.2017 22:00:00 12,8 10,2 13 7 - - ZW 1016,6 10
09.12.2017 21:00:00 12,0 9,4 13 7 - - ZW 1017,2 -
09.12.2017 20:00:00 11,5 9,1 8 4 - - Z 1017,3 -
09.12.2017 19:00:00 10,3 8,9 4 2 - - OZO 1018,3 8
09.12.2017 18:00:00 9,8 8,4 0 0 - - N 1019,0 -
09.12.2017 17:00:00 10,3 7,4 2 1 - - ZZW 1019,3 -
09.12.2017 16:00:00 10,2 7,6 8 4 - - ZZO 1020,4 20
09.12.2017 15:00:00 10,6 7,5 8 4 - - OZO 1021,8 -
09.12.2017 14:00:00 10,7 7,7 5 3 - - OZO 1023,3 -
09.12.2017 13:00:00 10,1 8,4 0 0 - - N 1024,8 20
09.12.2017 12:00:00 9,3 8,5 8 4 - - O 1025,9 -
09.12.2017 11:00:00 8,7 8,7 8 4 - - ZO 1026,8 -
09.12.2017 10:00:00 7,5 7,5 9 5 - - ZO 1027,1 -
09.12.2017 09:00:00 7,3 7,3 0 0 - - N 1027,2 -
09.12.2017 08:00:00 7,3 7,3 4 2 - - O 1027,0 -
09.12.2017 07:00:00 7,3 7,3 0 0 - - N 1027,3 9
09.12.2017 06:00:00 7,4 7,4 4 2 - - O 1027,5 -
09.12.2017 05:00:00 7,5 7,5 2 1 - - ZO 1027,3 -
09.12.2017 04:00:00 7,6 7,6 8 4 - - ZO 1027,9 -
09.12.2017 03:00:00 8,1 8,1 0 0 - - N 1028,2 -
09.12.2017 02:00:00 8,4 8,4 0 0 - - N 1028,3 -
09.12.2017 01:00:00 8,6 8,6 0 0 - - N 1028,4 -
09.12.2017 00:00:00 8,7 8,7 0 0 - - N 1028,9 -
08.12.2017 23:00:00 9,0 9,0 2 1 - - ZW 1028,9 -
08.12.2017 22:00:00 9,1 9,1 0 0 - - N 1028,8 15
08.12.2017 21:00:00 9,1 9,1 2 1 - - W 1028,7 -
08.12.2017 20:00:00 9,0 9,0 0 0 - - N 1028,5 -
08.12.2017 19:00:00 8,9 8,9 4 2 - - WNW 1028,5 10
08.12.2017 18:00:00 9,3 9,2 5 3 - - WNW 1028,4 -
08.12.2017 17:00:00 9,5 9,4 4 2 - - WNW 1028,2 -
08.12.2017 16:00:00 9,6 9,3 5 3 - - W 1028,1 10
08.12.2017 15:00:00 10,0 9,7 5 3 - - WNW 1028,2 -
08.12.2017 14:00:00 10,1 10,1 5 3 - - O 1028,0 -
08.12.2017 13:00:00 10,6 10,6 4 2 - - W 1028,6 2,0
08.12.2017 12:00:00 10,6 10,6 4 2 - - W 1028,7 -
08.12.2017 11:00:00 10,1 10,1 0 0 - - N 1028,8 -
08.12.2017 10:00:00 9,6 9,6 0 0 - - N 1028,2 1,5
08.12.2017 09:00:00 9,4 9,4 2 1 - - O 1027,6 -
08.12.2017 08:00:00 9,5 9,5 4 2 - - OZO 1026,9 -
08.12.2017 07:00:00 9,5 9,5 5 3 - - ONO 1026,4 3,0
08.12.2017 06:00:00 9,4 9,4 5 3 - - O 1026,1 -
08.12.2017 05:00:00 9,5 9,2 4 2 - - ONO 1025,8 -
08.12.2017 04:00:00 9,6 9,2 5 3 - - O 1025,6 -
08.12.2017 03:00:00 9,6 9,3 5 3 - - O 1025,6 -
08.12.2017 02:00:00 9,8 9,0 8 4 - - O 1025,7 -
08.12.2017 01:00:00 10,7 8,2 4 2 - - O 1025,9 -
08.12.2017 00:00:00 12,1 6,4 0 0 - - N 1026,0 -
07.12.2017 23:00:00 12,5 5,9 4 2 - - ZW 1026,3 -
07.12.2017 22:00:00 12,5 4,9 9 5 - - ZZW 1026,5 15
07.12.2017 21:00:00 12,7 3,1 8 4 - - WZW 1026,2 -
07.12.2017 20:00:00 12,8 2,6 4 2 - - ZW 1026,0 -
07.12.2017 19:00:00 12,5 2,1 4 2 - - ZZW 1026,3 15
07.12.2017 18:00:00 12,9 1,7 5 3 - - ZO 1026,3 -
07.12.2017 17:00:00 13,5 2,5 5 3 - - ZZO 1026,6 -
07.12.2017 16:00:00 12,8 4,2 4 2 - - ZZW 1026,5 25
07.12.2017 15:00:00 14,1 2,8 4 2 - - Z 1026,8 -
07.12.2017 14:00:00 14,4 1,1 5 3 - - Z 1027,0 -
07.12.2017 13:00:00 14,6 2,0 2 1 - - ZO 1027,4 25
07.12.2017 12:00:00 13,0 0,5 5 3 - - Z 1028,5 -
07.12.2017 11:00:00 10,9 2,0 11 6 - - OZO 1029,2 -
07.12.2017 10:00:00 9,7 0,2 9 5 - - OZO 1029,2 20
07.12.2017 09:00:00 7,2 1,5 11 6 - - O 1028,7 -
07.12.2017 08:00:00 7,4 0,4 0 0 - - N 1029,1 -
07.12.2017 07:00:00 6,7 0,7 4 2 - - W 1029,1 15
07.12.2017 06:00:00 7,1 0,6 0 0 - - N 1028,8 -
07.12.2017 05:00:00 6,0 1,5 2 1 - - ZW 1029,2 -
07.12.2017 04:00:00 5,1 1,8 4 2 - - ZO 1029,5 -

tt = temperatuur
td = dauwpunt
ff = windsnelheid
fx = windstoten
dd = windrichting
ppp = luchtdruk
vv = zicht

Weerstations in de omgeving